Meridian, MS

1:10 PM CST on December 07, 2019 (GMT -0600)
Key

Weather History for KMEI - October, 2019

Change the Weather History Date:

Saturday, October 5, 2019

  Actual Average Record
Temperature  
Mean Temperature 84 °F 68 °F  
Max Temperature 95 °F 81 °F 97 °F (1954)
Min Temperature 73 °F 55 °F 36 °F (1987)
Degree Days  
Heating Degree Days 0 2  
Month to date heating degree days 0 6  
Since 1 July heating degree days 0 13  
Cooling Degree Days 19 5  
Month to date cooling degree days 106 26  
Year to date cooling degree days 2738 1949  
Growing Degree Days 34 (Base 50)    
Moisture  
Dew Point 65 °F    
Average Humidity 59    
Maximum Humidity 84    
Minimum Humidity 41    
Precipitation  
Precipitation 0.00 in 0.11 in 2.17 in (1906)
Month to date precipitation T 0.57  
Year to date precipitation 43.18 42.96  
Sea Level Pressure  
Sea Level Pressure 29.98 in    
Wind  
Wind Speed 5 mph ()    
Max Wind Speed 13 mph    
Max Gust Speed 16 mph    
Visibility 10.0 miles    
Events Thunderstorm    
T = Trace of Precipitation, MM = Missing Value Source: Averaged Metar Reports

Daily Weather History Graph

Daily Weather History Graph

Search for Another Location

Airport or City:

Astronomy

Oct. 05, 2019 Rise Set
Actual Time 6:51 AM CDT 6:34 PM CDT
Civil Twilight 6:27 AM CDT 6:59 PM CDT
Nautical Twilight 5:58 AM CDT 7:27 PM CDT
Astronomical Twilight 5:30 AM CDT 7:56 PM CDT
Moon 1:58 PM CDT (10/5) No Moon Set
Length of Visible Light 12h 32m
Length of Day
11h 43m
Waxing Crescent, 50% of the Moon is Illuminated
Oct 5
Waxing Crescent
Oct 13
Full
Oct 21
Last Quarter
Oct 27
New
Nov 4
First Quarter

Hourly Weather History & Observations

Time (CDT) Temp. Heat Index Dew Point Humidity Pressure Visibility Wind Dir Wind Speed Gust Speed Precip Events Conditions
12:58 AM 75.9 °F - 70.0 °F 82% 30.02 in 10.0 mi SSW 8.1 mph - N/A   Clear
1:58 AM 75.0 °F - 70.0 °F 84% 29.99 in 10.0 mi North 3.5 mph - N/A   Clear
2:58 AM 75.0 °F - 66.9 °F 76% 29.97 in 10.0 mi North 4.6 mph - N/A   Clear
3:58 AM 73.9 °F - 64.9 °F 73% 29.96 in 10.0 mi North 5.8 mph - N/A   Clear
4:58 AM 73.0 °F - 63.0 °F 71% 29.96 in 10.0 mi North 5.8 mph - N/A   Clear
5:58 AM 73.9 °F - 62.1 °F 66% 29.97 in 10.0 mi North 5.8 mph - N/A   Clear
6:58 AM 73.0 °F - 62.1 °F 68% 29.99 in 10.0 mi NW 5.8 mph - N/A   Clear
7:58 AM 73.9 °F - 62.1 °F 66% 30.00 in 10.0 mi NNW 3.5 mph - N/A   Partly Cloudy
8:58 AM 79.0 °F - 59.0 °F 50% 30.01 in 10.0 mi NE 5.8 mph - N/A   Clear
9:58 AM 82.9 °F 83.2 °F 60.1 °F 46% 30.00 in 10.0 mi North 5.8 mph - N/A   Clear
10:58 AM 87.1 °F 87.8 °F 63.0 °F 44% 30.00 in 10.0 mi Calm Calm - N/A   Clear
11:58 AM 90.0 °F 92.4 °F 66.0 °F 45% 29.99 in 10.0 mi SSW 10.4 mph - N/A   Mostly Cloudy
12:58 PM 91.9 °F 94.5 °F 66.0 °F 42% 29.97 in 10.0 mi North - - N/A   Overcast
1:58 PM 93.0 °F 96.4 °F 66.9 °F 42% 29.94 in 10.0 mi WSW 4.6 mph - N/A   Scattered Clouds
2:58 PM 93.9 °F 97.5 °F 66.9 °F 41% 29.94 in 10.0 mi WNW 10.4 mph - N/A   Mostly Cloudy
3:58 PM 91.9 °F 94.5 °F 66.0 °F 42% 29.93 in 10.0 mi WNW 9.2 mph - N/A   Clear
4:58 PM 91.9 °F 95.4 °F 66.9 °F 44% 29.92 in 10.0 mi NW 6.9 mph - N/A   Clear
5:58 PM 87.1 °F 89.9 °F 66.9 °F 51% 29.94 in 10.0 mi NNW 6.9 mph - N/A   Clear
6:42 PM 84.9 °F 87.6 °F 66.9 °F 55% 29.96 in 10.0 mi ENE 4.6 mph - N/A Thunderstorm Partly Cloudy
6:58 PM 84.9 °F 87.6 °F 66.9 °F 55% 29.96 in 10.0 mi SE 8.1 mph - N/A   Partly Cloudy
8:58 PM 80.1 °F 82.3 °F 66.9 °F 64% 30.00 in 10.0 mi SSE 5.8 mph - N/A   Mostly Cloudy
9:58 PM 78.1 °F - 64.9 °F 64% 30.01 in 10.0 mi SSW 6.9 mph - N/A   Clear
10:58 PM 75.9 °F - 66.0 °F 71% 30.00 in 10.0 mi South 5.8 mph - N/A   Partly Cloudy
11:58 PM 77.0 °F - 66.0 °F 69% 30.01 in 10.0 mi East 4.6 mph - N/A   Mostly Cloudy